Satellite-Ground Cal/Val Region Overpasses Predictions

Prediction of Satellite NPP Overpassing Cal/Val Region: PacNW

Region Location: (Latitude: 10.00, Longitude: 139.50) to (Latitude: 22.70, Longitude: 165.60).

Table of predicted overpasses for the next 14.0 days since TLE Epoch: 6/8/2014
Interval Starting Time Starting Location Ending Time Ending Location
1 06/08/2014 03:55:34 ( 10.04, 142.30) 06/08/2014 03:58:54 ( 21.78, 139.51)
2 06/08/2014 14:45:58 ( 22.64, 164.94) 06/08/2014 14:49:33 ( 10.02, 161.93)
3 06/08/2014 16:27:27 ( 22.70, 139.58) 06/08/2014 16:27:32 ( 22.41, 139.51)
4 06/09/2014 03:36:34 ( 10.05, 147.06) 06/09/2014 03:40:09 ( 22.67, 144.04)
5 06/09/2014 16:08:26 ( 22.69, 144.34) 06/09/2014 16:12:02 ( 10.01, 141.31)
6 06/10/2014 03:17:32 ( 10.01, 151.83) 06/10/2014 03:21:08 ( 22.68, 148.80)
7 06/10/2014 15:49:26 ( 22.67, 149.10) 06/10/2014 15:53:01 ( 10.05, 146.08)
8 06/11/2014 02:58:32 ( 10.02, 156.58) 06/11/2014 03:02:08 ( 22.70, 153.55)
9 06/11/2014 15:30:25 ( 22.66, 153.85) 06/11/2014 15:34:00 ( 10.04, 150.84)
10 06/12/2014 02:39:31 ( 10.04, 161.34) 06/12/2014 02:43:06 ( 22.66, 158.32)
11 06/12/2014 15:11:24 ( 22.70, 158.62) 06/12/2014 15:15:00 ( 10.02, 155.59)
12 06/13/2014 02:21:08 ( 12.23, 165.60) 06/13/2014 02:24:06 ( 22.67, 163.08)
13 06/13/2014 04:02:01 ( 10.05, 140.72) 06/13/2014 04:03:30 ( 15.28, 139.51)
14 06/13/2014 14:52:23 ( 22.68, 163.38) 06/13/2014 14:55:59 ( 10.01, 160.35)
15 06/14/2014 03:42:59 ( 10.01, 145.49) 06/14/2014 03:46:35 ( 22.69, 142.46)
16 06/14/2014 14:36:23 ( 12.10, 165.59) 06/14/2014 14:36:58 ( 10.05, 165.12)
17 06/14/2014 16:14:53 ( 22.67, 142.76) 06/14/2014 16:18:28 ( 10.05, 139.74)
18 06/15/2014 03:23:59 ( 10.03, 150.25) 06/15/2014 03:27:34 ( 22.65, 147.23)
19 06/15/2014 15:55:52 ( 22.65, 147.51) 06/15/2014 15:59:27 ( 10.03, 144.50)
20 06/16/2014 03:04:58 ( 10.04, 155.00) 06/16/2014 03:08:33 ( 22.67, 151.99)
21 06/16/2014 15:36:51 ( 22.69, 152.28) 06/16/2014 15:40:27 ( 10.01, 149.25)
22 06/17/2014 02:45:57 ( 10.00, 159.77) 06/17/2014 02:49:33 ( 22.68, 156.74)
23
